Regional Weather Roundup
Issued by NWS State College, PA

Home | Current Version | Previous Version | Text Only | Print | Product List | Glossary Off
Versions: 1 2 3 4 5 6 7 8 9 10 11 12 13 14 15 16 17 18 19 20 21 22 23 24 25 26 27 28 29 30 31 32 33 34 35 36 37 38 39 40 41 42 43 44 45 46 47 48 49 50

000
ASUS41 KCTP 282303
RWRCTP

REGIONAL WEATHER ROUNDUP
NATIONAL WEATHER SERVICE STATE COLLEGE PA
700 PM EDT THU JUL 28 2016

Note: "fair" indicates few or no clouds below 12,000 feet with no
significant weather and/or obstructions to visibility.

* = STATION THAT DOES NOT REPORT PRECIPITATION /E.G. RAIN...SNOW...ETC/
    THUNDER OR FOG.

PAZ002>004-007>009-013>016-020>023-029>032-290000-
WESTERN PENNSYLVANIA

CITY           SKY/WX    TMP DP  RH WIND       PRES   REMARKS
ERIE           CLOUDY    80  65  59 S6        29.88R
MEADVILLE      CLOUDY    70  66  87 CALM      29.92S
FRANKLIN*      CLOUDY    70  64  83 S6        29.93S
NEW CASTLE     MOCLDY    74  66  76 CALM      29.91S
BEAVER COUNTY  RAIN      73  68  83 CALM      29.92R
BUTLER*        CLOUDY    73  66  78 CALM      29.94S
PITTSBURGH INT LGT RAIN  72  67  84 CALM      29.91S
PITTSBURGH     CLOUDY    72  67  84 CALM      29.90F
INDIANA*       SUNNY     72  70  94 CALM      29.95F
LATROBE        LGT RAIN  72  72 100 VRB5      29.91F FOG
WASHINGTON CO* CLOUDY    72  68  88 CALM      29.92S
$$

PAZ004>006-010>012-017>019-024>028-033>037-041-042-045-046-049>053-290000-
CENTRAL PENNSYLVANIA

CITY           SKY/WX    TMP DP  RH WIND       PRES   REMARKS
BRADFORD       CLOUDY    74  66  76 CALM      29.95R
DUBOIS         CLOUDY    71  66  84 SW5       29.95R
CLEARFIELD     LGT RAIN  72  68  87 CALM      29.95R
JOHNSTOWN      LGT RAIN  68  64  87 N3        29.95F FOG
ALTOONA        LGT RAIN  70  69  97 CALM      29.94F
STATE COLLEGE  DRIZZLE   72  68  88 S6        29.94R
WILLIAMSPORT   PTSUNNY   83  66  56 S9        29.84R
SELINSGROVE    LGT RAIN  78  73  84 S7        29.89R
FT INDIANTOWN  CLOUDY    73  72  94 E6        29.90R
CAPITAL CITY   CLOUDY    78  69  73 E6        29.89R
HARRISBURG     CLOUDY    78  71  79 E6        29.88S
YORK           CLOUDY    78  69  73 E6        29.89R
$$

PAZ038>040-043-044-047-048-054-055-060>062-067>071-290000-
EASTERN PENNSYLVANIA

CITY           SKY/WX    TMP DP  RH WIND       PRES   REMARKS
SCRANTON       CLOUDY    78  68  71 VRB5      29.89R
MOUNT POCONO   CLOUDY    71  66  84 S7        29.96R
ALLENTOWN      LGT RAIN  76  72  87 S3        29.87F
QUAKERTOWN*    CLOUDY    73  73 100 CALM      29.90F
READING        CLOUDY    73  69  87 N3        29.87F
LANCASTER      CLOUDY    75  72  90 E5        29.89F
COATESVILLE    CLOUDY    73  72  94 E6        29.90F
POTTSTOWN      CLOUDY    74  72  93 CALM      29.89F
BLUE BELL      MOSUNNY   72  72 100 CALM      29.87F
DOYLESTOWN     CLOUDY    73  73 100 S7        29.88F
WILLOW GROVE   NOT AVBL
NORTH PHILA    CLOUDY    77  73  87 SE5       29.89F
PHILADELPHIA   CLOUDY    76  72  87 E6        29.87F
$$



USA.gov is the U.S. government's official web portal to all federal, state and local government web resources and services.